Flag for Ukraine Weather past 2 weeks in Luhansk, Ukraine

Now
28 °F

Overcast.


Feels Like: 16 °F
Forecast: 22 / 33 °F
Wind: 17 mph from East

Location: Rostov-Na-Donu

Current Time: Oct 24, 2014 at 11:17:41 AM

Latest Report: Oct 24, 2014 at 10:30 AM


Visibility: N/A

Pressure: 30.30 "Hg

Humidity: 74%

Dew point: 21 °F

Location of LuhanskLocation

Historic Weather in Luhansk — Graph

°F

Luhansk temperature yesterday

Maximum temperature yesterday: 52 °F (at 12:00 AM)
Minimum temperature yesterday: 34 °F (at 7:30 PM)
Average temperature yesterday: 42 °F

Past Weeks' High & Low Weather Summary

 TemperatureHumidityPressure
High73 °F (Oct 15, 2:30 PM)100% (Oct 13, 8:30 AM)30.39 "Hg (Oct 13, 8:30 AM)
Low27 °F (Oct 20, 2:30 AM)35% (Oct 11, 1:30 PM)29.62 "Hg (Oct 17, 6:30 AM)
Average51 °F78%30.02 "Hg
* Reported Oct 9 10:00 AM — Oct 24 10:00 AM, Luhansk, Weather by CustomWeather, © 2014

Note: Actual official high and low records may vary slightly from our data, if they occured in-between our weather recording intervals... More about our weather records

Advertising

Luhansk weather history for previous 24 hours

 ConditionsComfort  
Time TempWeatherWind HumidityBarometerVisibility
10:00 AM
Oct 24
28 °FOvercast.17 mph74%30.30 "HgN/A
9:30 AM28 °FLight freezing rain. Clear.17 mph80%30.27 "HgN/A
9:00 AM28 °FLight freezing rain. Clear.15 mph80%30.30 "HgN/A
8:30 AM28 °FLight freezing rain. Clear.15 mph80%30.27 "HgN/A
8:00 AM27 °FLight freezing rain. Clear.17 mph86%30.27 "HgN/A
7:30 AM28 °FLight freezing rain. Clear.20 mph80%30.27 "HgN/A
7:00 AM28 °FLight freezing rain. Clear.17 mph86%30.24 "HgN/A
6:30 AM28 °FLight freezing rain. Clear.22 mph86%30.24 "HgN/A
5:30 AM30 °FLight freezing rain. Clear.20 mph75%30.21 "HgN/A
5:00 AM30 °FClear.22 mph75%30.21 "Hg10 mi
4:30 AM30 °FClear.22 mph69%30.18 "Hg10 mi
4:00 AM32 °FClear.20 mph69%30.21 "Hg10 mi
3:30 AM32 °FClear.22 mph69%30.18 "Hg10 mi
3:00 AM32 °FClear.24 mph69%30.18 "Hg10 mi
2:30 AM32 °FOvercast.22 mph75%30.18 "HgN/A
2:00 AM32 °FOvercast.17 mph75%30.18 "HgN/A
1:30 AM32 °FOvercast.22 mph75%30.18 "HgN/A
1:00 AM32 °FSprinkles. Mostly cloudy.20 mph80%30.15 "HgN/A
12:30 AM34 °FSprinkles. Mostly cloudy.17 mph75%30.15 "HgN/A
12:00 AM34 °FSprinkles. Mostly cloudy.17 mph75%30.15 "HgN/A
11:30 PM
Oct 23
34 °FSprinkles. Mostly cloudy.17 mph75%30.15 "HgN/A
11:00 PM34 °FMostly cloudy.17 mph75%30.15 "HgN/A
10:30 PM34 °FMostly cloudy.20 mph75%30.12 "HgN/A
10:00 PM34 °FMostly cloudy.17 mph81%30.12 "HgN/A
9:30 PM34 °FMostly cloudy.20 mph81%30.12 "HgN/A
9:00 PM34 °FMostly cloudy.22 mph75%30.12 "HgN/A
8:30 PM34 °FMostly cloudy.22 mph81%30.12 "HgN/A
8:00 PM34 °FMostly cloudy.20 mph81%30.09 "HgN/A
7:30 PM34 °FMostly cloudy.22 mph81%30.09 "HgN/A
7:00 PM36 °FMostly cloudy.17 mph81%30.09 "HgN/A
6:30 PM36 °FOvercast.20 mph81%30.09 "HgN/A
6:00 PM36 °FOvercast.17 mph81%30.09 "HgN/A
5:30 PM36 °FOvercast.15 mph87%30.07 "HgN/A
5:00 PM36 °FOvercast.15 mph87%30.07 "HgN/A
4:30 PM37 °FMostly cloudy.20 mph81%30.07 "HgN/A
4:00 PM37 °FMostly cloudy.20 mph81%30.04 "HgN/A
3:30 PM37 °FMostly cloudy.17 mph81%30.04 "HgN/A
3:00 PM39 °FMostly cloudy.17 mph81%30.04 "HgN/A
2:30 PM39 °FMostly cloudy.20 mph81%30.04 "HgN/A
2:00 PM39 °FOvercast.20 mph81%30.04 "HgN/A
1:30 PM39 °FOvercast.20 mph81%30.04 "HgN/A
1:00 PM39 °FOvercast.17 mph87%30.04 "HgN/A
12:30 PM39 °FOvercast.17 mph87%30.04 "Hg5 mi
12:00 PM41 °FLow clouds.17 mph87%30.04 "Hg4 mi
11:30 AM41 °FLow clouds.20 mph93%30.01 "Hg4 mi
11:00 AM43 °FLow clouds.17 mph87%30.01 "Hg4 mi
Weather by CustomWeather, © 2014

See weather overviewHow to use our weather pages